Weather History for Prague, Czech Republic

Change the Weather History Date:

Sunday, July 22, 2012

  Actual Average Record
Temperature  
Mean Temperature 56 °F -  
Max Temperature 63 °F 73 °F 89 °F (2006)
Min Temperature 50 °F 53 °F 44 °F (1996)
Degree Days  
Heating Degree Days 8    
Growing Degree Days 6 (Base 50)    
Moisture  
Dew Point 48 °F    
Average Humidity 77    
Maximum Humidity 94    
Minimum Humidity 45    
Precipitation  
Precipitation 0.02 in 0.09 in - ()
Sea Level Pressure  
Sea Level Pressure 30.29 in    
Wind  
Wind Speed 7 mph ()    
Max Wind Speed 12 mph    
Max Gust Speed -    
Visibility 6.5 miles    
Events Rain    
Averages and records for this station are not official NWS values.
T = Trace of Precipitation, MM = Missing Value Source: Averaged Metar Reports

Daily Weather History Graph

Daily Weather History Graph

Search for Another Location

Airport:

Trip Planner

Search our weather history database for the weather conditions in past years. The results will help you decide how hot, cold, wet, or windy it might be!

Date:

Astronomy

Jul. 22, 2012 Rise Set
Actual Time 5:18 AM CEST 8:59 PM CEST
Civil Twilight 4:37 AM CEST 9:39 PM CEST
Nautical Twilight 3:42 AM CEST 10:35 PM CEST
Astronomical Twilight 2:19 AM CEST 11:56 PM CEST
Moon 9:13 AM CEST (7/22) 10:01 PM CEST (7/22)
Length of Visible Light 17h 01m
Length of Day
15h 40m
Waxing Crescent, 11% of the Moon is Illuminated
Jul 22
Waxing Crescent
Jul 26
First Quarter
Aug 2
Full
Aug 9
Last Quarter
Aug 17
New

Hourly Weather History & Observations

Time (CEST) Temp. Dew Point Humidity Pressure Visibility Wind Dir Wind Speed Gust Speed Precip Events Conditions
12:00 AM 53.6 °F 50.0 °F 88% 30.18 in 6.2 mi NW 11.5 mph - N/A Rain Light Rain
12:31 AM 53.6 °F 50.0 °F 88% 30.21 in 6.2 mi NNW 11.5 mph - N/A Rain Light Rain
1:00 AM 53.6 °F 50.0 °F 88% 30.21 in 6.2 mi NNW 9.2 mph - N/A Rain Light Rain
1:30 AM 51.8 °F 50.0 °F 94% 30.21 in 6.2 mi NNW 9.2 mph - N/A Rain Light Rain
2:00 AM 52 °F 50 °F 92% 30.23 in 7 mi NW 4.5 mph - - Rain Light Rain
2:00 AM 51.8 °F 50.0 °F 94% 30.21 in 6.2 mi NNW 6.9 mph - N/A Rain Light Rain
2:30 AM 51.8 °F 50.0 °F 94% 30.21 in 6.2 mi NW 9.2 mph - N/A Rain Light Rain
3:00 AM 51.8 °F 50.0 °F 94% 30.21 in 6.2 mi NNW 8.1 mph - N/A Rain Light Rain
3:30 AM 51.8 °F 50.0 °F 94% 30.21 in 6.2 mi North 4.6 mph - N/A Rain Light Rain
4:00 AM 51.8 °F 48.2 °F 88% 30.21 in 6.2 mi NNE 3.5 mph - N/A Rain Light Rain
4:30 AM 51.8 °F 50.0 °F 94% 30.24 in 6.2 mi Variable 1.2 mph - N/A Rain Light Rain
5:00 AM 51.8 °F 50.0 °F 94% 30.24 in 6.2 mi SW 1.2 mph - N/A   Overcast
5:30 AM 51.8 °F 50.0 °F 94% 30.24 in 6.2 mi WSW 3.5 mph - N/A   Mostly Cloudy
6:00 AM 51.8 °F 50.0 °F 94% 30.24 in 6.2 mi WSW 3.5 mph - N/A   Mostly Cloudy
6:30 AM 51.8 °F 50.0 °F 94% 30.24 in 6.2 mi WSW 4.6 mph - N/A   Scattered Clouds
7:00 AM 51.8 °F 50.0 °F 94% 30.24 in - West 4.6 mph - N/A   Clear
7:30 AM 51.8 °F 50.0 °F 94% 30.27 in 6.2 mi West 5.8 mph - N/A   Partly Cloudy
8:00 AM 54 °F 50 °F 83% 30.29 in 19 mi NW 6.7 mph - -   Partly Cloudy
8:00 AM 53.6 °F 50.0 °F 88% 30.27 in 6.2 mi WNW 6.9 mph - N/A   Mostly Cloudy
8:11 AM 53.6 °F 50.0 °F 88% 30.27 in 6.2 mi NW 8.1 mph - N/A   Mostly Cloudy
8:30 AM 53.6 °F 50.0 °F 88% 30.27 in 6.2 mi NNW 10.4 mph - N/A   Mostly Cloudy
8:49 AM 53.6 °F 50.0 °F 88% 30.30 in 6.2 mi NW 10.4 mph - N/A   Scattered Clouds
9:00 AM 55.4 °F 50.0 °F 82% 30.30 in 6.2 mi NNW 10.4 mph - N/A   Scattered Clouds
9:30 AM 53.6 °F 50.0 °F 88% 30.30 in 6.2 mi NNW 11.5 mph - N/A   Mostly Cloudy
9:31 AM 53.6 °F 48.2 °F 82% 30.30 in 6.2 mi North 11.5 mph - N/A Rain Light Rain Showers
9:54 AM 51.8 °F 50.0 °F 94% 30.30 in 6.2 mi NNW 10.4 mph - N/A Rain Light Rain Showers
10:00 AM 51.8 °F 50.0 °F 94% 30.30 in 6.2 mi NW 10.4 mph - N/A Rain Light Rain Showers
10:12 AM 51.8 °F 50.0 °F 94% 30.30 in 6.2 mi NW 10.4 mph - N/A   Mostly Cloudy
10:30 AM 53.6 °F 50.0 °F 88% 30.30 in 6.2 mi NNW 9.2 mph - N/A   Mostly Cloudy
11:00 AM 55.4 °F 50.0 °F 82% 30.30 in 6.2 mi NW 8.1 mph - N/A   Scattered Clouds
11:30 AM 55.4 °F 50.0 °F 82% 30.33 in 6.2 mi NNW 9.2 mph - N/A   Scattered Clouds
12:00 PM 57.2 °F 50.0 °F 77% 30.33 in 6.2 mi NNW 9.2 mph - N/A   Scattered Clouds
12:30 PM 59.0 °F 50.0 °F 72% 30.33 in 6.2 mi North 6.9 mph - N/A   Partly Cloudy
1:00 PM 59.0 °F 48.2 °F 67% 30.33 in 6.2 mi NNW 9.2 mph - N/A   Partly Cloudy
1:30 PM 59.0 °F 46.4 °F 63% 30.33 in 6.2 mi WNW 9.2 mph - N/A   Partly Cloudy
2:00 PM 63 °F 47 °F 45% 30.31 in 44 mi NNW 8.9 mph - -   Partly Cloudy
2:00 PM 62.6 °F 46.4 °F 55% 30.33 in 6.2 mi North 6.9 mph - N/A   Scattered Clouds
2:30 PM 62.6 °F 46.4 °F 55% 30.33 in 6.2 mi NNE 5.8 mph - N/A   Scattered Clouds
3:00 PM 60.8 °F 46.4 °F 59% 30.33 in 6.2 mi NNW 8.1 mph - N/A   Partly Cloudy
3:30 PM 62.6 °F 44.6 °F 52% 30.33 in 6.2 mi NNW 8.1 mph - N/A   Partly Cloudy
4:00 PM 60.8 °F 46.4 °F 59% 30.33 in 6.2 mi NNE 11.5 mph - N/A   Scattered Clouds
4:30 PM 60.8 °F 46.4 °F 59% 30.33 in - NNE 8.1 mph - N/A   Clear
5:00 PM 62.6 °F 42.8 °F 48% 30.33 in - North 9.2 mph - N/A   Clear
5:30 PM 60.8 °F 42.8 °F 52% 30.33 in - North 11.5 mph - N/A   Clear
6:00 PM 62.6 °F 42.8 °F 48% 30.33 in - NNE 5.8 mph - N/A   Clear
6:30 PM 62.6 °F 44.6 °F 52% 30.33 in - North 5.8 mph - N/A   Clear
7:00 PM 64.4 °F 46.4 °F 52% 30.33 in - North 5.8 mph - N/A   Clear
7:30 PM 62.6 °F 44.6 °F 52% 30.33 in - North 6.9 mph - N/A   Clear
8:00 PM 60 °F 46 °F 48% 30.34 in 47 mi North 6.7 mph - -   Partly Cloudy
8:00 PM 60.8 °F 46.4 °F 59% 30.33 in - North 6.9 mph - N/A   Clear
8:30 PM 59.0 °F 46.4 °F 63% 30.36 in - North 6.9 mph - N/A   Clear
9:00 PM 55.4 °F 46.4 °F 72% 30.36 in - North 6.9 mph - N/A   Clear
9:30 PM 57.2 °F 46.4 °F 67% 30.36 in - North 2.3 mph - N/A   Clear
10:00 PM 55.4 °F 46.4 °F 72% 30.36 in - North 3.5 mph - N/A   Clear
10:30 PM 53.6 °F 46.4 °F 77% 30.39 in - North 6.9 mph - N/A   Clear
11:00 PM 53.6 °F 46.4 °F 77% 30.39 in - NW 3.5 mph - N/A   Clear
11:30 PM 51.8 °F 46.4 °F 82% 30.39 in - NW 2.3 mph - N/A   Clear